Total_Precipitation_Accumulation
0.01 0.05 0.11 0.19 0.42 0.17 0.01 0.00 0.00 0.00 0.00 0.00 0.00 0.00 0.00 0.01 0.09 0.31 0.06 0.00 0.00 0.00 0.01 0.05 0.10 0.12 0.11 0.11 0.10 0.17 0.18 0.11 0.10 0.11 0.10 0.08 0.08 0.09 0.09 0.09 0.06 0.05 0.05 0.07 0.15 0.23 0.23 0.24 0.34
0.01 0.06 0.13 0.38 0.37 0.04 0.00 0.00 0.00 0.00 0.00 0.00 0.00 0.00 0.00 0.00 0.00 0.01 0.00 0.00 0.00 0.00 0.01 0.03 0.08 0.14 0.13 0.10 0.14 0.28 0.27 0.17 0.12 0.11 0.09 0.05 0.05 0.10 0.17 0.17 0.06 0.04 0.05 0.05 0.13 0.21 0.20 0.24 0.33
0.01 0.04 0.17 0.40 0.14 0.02 0.01 0.00 0.00 0.00 0.00 0.00 0.00 0.00 0.00 0.00 0.00 0.00 0.00 0.00 0.00 0.00 0.02 0.12 0.15 0.13 0.12 0.15 0.25 0.38 0.34 0.28 0.19 0.10 0.06 0.05 0.05 0.08 0.15 0.11 0.06 0.03 0.03 0.05 0.11 0.18 0.18 0.19 0.24
0.02 0.06 0.24 0.28 0.07 0.01 0.00 0.00 0.00 0.00 0.00 0.00 0.00 0.00 0.00 0.00 0.00 0.00 0.00 0.00 0.00 0.00 0.03 0.10 0.15 0.13 0.14 0.22 0.34 0.37 0.39 0.43 0.27 0.12 0.07 0.08 0.08 0.10 0.13 0.11 0.06 0.03 0.02 0.04 0.06 0.11 0.17 0.19 0.22
0.04 0.16 0.37 0.35 0.08 0.01 0.00 0.00 0.00 0.00 0.00 0.00 0.00 0.00 0.00 0.00 0.00 0.00 0.00 0.00 0.00 0.00 0.02 0.05 0.15 0.15 0.18 0.27 0.36 0.33 0.38 0.43 0.31 0.12 0.11 0.13 0.08 0.08 0.11 0.13 0.05 0.02 0.01 0.01 0.03 0.07 0.11 0.16 0.21
0.07 0.26 0.52 0.49 0.12 0.01 0.01 0.01 0.00 0.01 0.00 0.00 0.00 0.00 0.01 0.01 0.00 0.00 0.00 0.00 0.00 0.00 0.01 0.04 0.11 0.13 0.18 0.28 0.38 0.32 0.33 0.35 0.24 0.14 0.14 0.10 0.09 0.09 0.11 0.09 0.04 0.01 0.00 0.00 0.02 0.07 0.09 0.12 0.16
0.08 0.27 0.50 0.33 0.08 0.02 0.01 0.01 0.01 0.01 0.00 0.01 0.01 0.01 0.03 0.02 0.01 0.00 0.01 0.02 0.03 0.03 0.02 0.03 0.05 0.06 0.11 0.22 0.34 0.38 0.37 0.33 0.19 0.14 0.11 0.11 0.11 0.08 0.06 0.04 0.02 0.01 0.00 0.00 0.01 0.04 0.06 0.07 0.10
0.02 0.11 0.28 0.23 0.11 0.08 0.02 0.01 0.01 0.01 0.01 0.01 0.03 0.04 0.07 0.05 0.03 0.02 0.04 0.07 0.06 0.04 0.02 0.03 0.06 0.10 0.18 0.19 0.26 0.39 0.46 0.39 0.24 0.17 0.14 0.12 0.08 0.05 0.04 0.01 0.01 0.00 0.00 0.00 0.01 0.01 0.03 0.05 0.06
0.04 0.11 0.28 0.36 0.20 0.11 0.04 0.02 0.02 0.03 0.03 0.04 0.05 0.06 0.07 0.06 0.06 0.04 0.06 0.08 0.09 0.06 0.03 0.04 0.07 0.11 0.20 0.30 0.31 0.46 0.56 0.46 0.27 0.19 0.14 0.13 0.13 0.16 0.14 0.03 0.01 0.00 0.00 0.00 0.01 0.01 0.01 0.01 0.03
0.07 0.15 0.25 0.37 0.27 0.14 0.07 0.06 0.06 0.07 0.07 0.06 0.08 0.10 0.09 0.07 0.09 0.10 0.11 0.12 0.12 0.13 0.11 0.07 0.06 0.08 0.14 0.24 0.55 0.78 0.68 0.57 0.35 0.38 0.25 0.26 0.31 0.35 0.22 0.09 0.03 0.01 0.00 0.00 0.01 0.01 0.01 0.00 0.00
0.06 0.10 0.13 0.22 0.22 0.10 0.06 0.07 0.08 0.08 0.08 0.08 0.09 0.10 0.12 0.13 0.15 0.17 0.19 0.20 0.21 0.20 0.18 0.14 0.10 0.08 0.11 0.26 0.52 0.78 0.92 0.87 0.79 0.58 0.39 0.38 0.26 0.17 0.10 0.07 0.08 0.05 0.01 0.00 0.01 0.00 0.00 0.00 0.01
0.09 0.07 0.06 0.10 0.11 0.08 0.07 0.06 0.07 0.07 0.09 0.09 0.12 0.13 0.15 0.17 0.20 0.20 0.24 0.27 0.31 0.32 0.31 0.25 0.20 0.15 0.14 0.17 0.26 0.40 0.48 0.53 0.56 0.40 0.26 0.33 0.29 0.17 0.12 0.09 0.09 0.07 0.03 0.01 0.01 0.00 0.00 0.00 0.01
0.09 0.06 0.04 0.06 0.07 0.08 0.07 0.06 0.06 0.08 0.11 0.10 0.14 0.21 0.26 0.29 0.28 0.28 0.30 0.32 0.35 0.41 0.48 0.45 0.34 0.30 0.26 0.25 0.27 0.26 0.34 0.38 0.36 0.39 0.30 0.27 0.25 0.16 0.12 0.06 0.05 0.04 0.03 0.01 0.01 0.00 0.00 0.00 0.01
0.05 0.05 0.07 0.08 0.07 0.06 0.06 0.07 0.08 0.09 0.12 0.15 0.20 0.28 0.36 0.43 0.43 0.45 0.45 0.46 0.45 0.48 0.55 0.60 0.51 0.45 0.41 0.36 0.34 0.31 0.37 0.41 0.40 0.32 0.25 0.25 0.26 0.17 0.13 0.07 0.05 0.04 0.03 0.02 0.00 0.00 0.00 0.00 0.00
0.02 0.03 0.04 0.04 0.04 0.05 0.07 0.10 0.10 0.12 0.15 0.20 0.24 0.30 0.37 0.45 0.50 0.54 0.53 0.51 0.50 0.52 0.54 0.57 0.58 0.57 0.55 0.53 0.50 0.46 0.50 0.54 0.50 0.42 0.31 0.27 0.28 0.24 0.18 0.13 0.09 0.06 0.04 0.03 0.01 0.00 0.00 0.00 0.00
0.01 0.02 0.07 0.05 0.05 0.09 0.13 0.14 0.13 0.16 0.17 0.20 0.24 0.28 0.33 0.37 0.42 0.47 0.50 0.47 0.46 0.46 0.46 0.51 0.53 0.57 0.63 0.65 0.66 0.68 0.66 0.69 0.61 0.55 0.44 0.34 0.31 0.30 0.32 0.25 0.18 0.12 0.09 0.06 0.04 0.02 0.01 0.00 0.00
0.01 0.04 0.10 0.10 0.08 0.11 0.15 0.17 0.17 0.19 0.18 0.20 0.23 0.22 0.23 0.26 0.31 0.36 0.39 0.41 0.42 0.41 0.41 0.43 0.47 0.50 0.61 0.69 0.71 0.79 0.81 0.82 0.77 0.72 0.59 0.53 0.51 0.49 0.51 0.48 0.40 0.29 0.20 0.12 0.07 0.04 0.02 0.01 0.01
0.11 0.07 0.08 0.10 0.07 0.08 0.11 0.13 0.15 0.16 0.15 0.15 0.16 0.17 0.17 0.18 0.22 0.27 0.28 0.29 0.30 0.32 0.34 0.38 0.43 0.45 0.52 0.67 0.79 0.94 1.05 1.01 1.02 0.94 0.79 0.78 0.86 0.93 0.97 0.86 0.78 0.65 0.45 0.32 0.20 0.15 0.10 0.06 0.04
0.06 0.05 0.06 0.07 0.09 0.09 0.10 0.11 0.13 0.13 0.12 0.12 0.11 0.12 0.13 0.12 0.13 0.15 0.19 0.22 0.22 0.22 0.25 0.31 0.34 0.42 0.50 0.58 0.72 0.94 1.21 1.30 1.39 1.32 1.13 1.05 1.13 1.31 1.43 1.32 1.22 1.03 0.81 0.68 0.57 0.57 0.52 0.33 0.12
0.05 0.07 0.06 0.05 0.05 0.06 0.07 0.08 0.09 0.10 0.12 0.11 0.11 0.10 0.10 0.09 0.07 0.07 0.10 0.13 0.15 0.15 0.17 0.22 0.30 0.39 0.48 0.57 0.74 0.90 1.05 1.05 1.21 1.35 1.30 1.18 1.15 1.26 1.37 1.53 1.48 1.25 1.14 1.16 1.10 1.19 1.18 0.77 0.35
0.06 0.09 0.11 0.11 0.07 0.05 0.06 0.08 0.07 0.09 0.11 0.11 0.12 0.11 0.10 0.08 0.06 0.06 0.06 0.08 0.09 0.10 0.12 0.15 0.21 0.32 0.45 0.60 0.84 1.05 1.23 1.31 1.37 1.28 1.35 1.32 1.22 1.24 1.30 1.43 1.52 1.40 1.35 1.35 1.37 1.53 1.74 1.39 0.88
0.06 0.05 0.06 0.09 0.14 0.14 0.15 0.19 0.13 0.14 0.18 0.18 0.18 0.15 0.14 0.12 0.09 0.06 0.06 0.07 0.07 0.08 0.08 0.12 0.20 0.35 0.56 0.77 1.02 1.27 1.47 1.50 1.39 1.43 1.45 1.30 1.21 1.16 1.20 1.29 1.39 1.45 1.40 1.44 1.41 1.37 1.66 1.78 1.43
0.02 0.02 0.03 0.07 0.12 0.11 0.10 0.17 0.16 0.21 0.30 0.32 0.30 0.26 0.20 0.16 0.13 0.12 0.11 0.12 0.13 0.14 0.16 0.23 0.43 0.67 0.93 1.14 1.38 1.66 1.67 1.55 1.45 1.44 1.41 1.35 1.32 1.28 1.25 1.35 1.38 1.35 1.36 1.41 1.59 1.65 1.78 1.86 1.70
0.01 0.02 0.05 0.08 0.11 0.07 0.06 0.13 0.24 0.28 0.33 0.37 0.36 0.30 0.23 0.19 0.22 0.27 0.31 0.37 0.41 0.44 0.58 0.78 1.04 1.24 1.32 1.44 1.58 1.69 1.67 1.68 1.61 1.41 1.32 1.30 1.32 1.36 1.40 1.45 1.40 1.31 1.30 1.36 1.51 1.68 1.79 1.92 1.94
0.01 0.04 0.10 0.12 0.14 0.12 0.12 0.27 0.38 0.34 0.29 0.29 0.30 0.25 0.20 0.24 0.33 0.45 0.61 0.74 0.84 0.96 1.08 1.22 1.40 1.55 1.49 1.46 1.49 1.53 1.53 1.51 1.49 1.43 1.30 1.22 1.22 1.23 1.26 1.35 1.45 1.47 1.44 1.51 1.58 1.65 1.56 1.67 1.89
0.02 0.07 0.18 0.23 0.21 0.23 0.27 0.47 0.52 0.41 0.31 0.22 0.17 0.16 0.24 0.38 0.52 0.63 0.72 0.83 1.00 1.14 1.19 1.19 1.30 1.39 1.34 1.31 1.29 1.25 1.28 1.27 1.23 1.13 1.11 1.13 1.17 1.15 1.09 1.10 1.20 1.34 1.43 1.39 1.38 1.33 1.26 1.32 1.47
0.04 0.06 0.14 0.27 0.23 0.23 0.35 0.61 0.57 0.37 0.31 0.25 0.22 0.25 0.38 0.58 0.79 0.94 1.04 1.17 1.21 1.25 1.30 1.21 1.20 1.25 1.24 1.15 1.05 1.05 1.06 1.06 1.06 1.01 0.99 0.97 0.94 0.87 0.82 0.81 0.82 0.90 0.94 0.93 0.98 1.04 1.09 1.07 1.15
0.09 0.16 0.24 0.42 0.46 0.45 0.54 0.65 0.58 0.46 0.43 0.45 0.52 0.61 0.67 0.78 1.03 1.32 1.57 1.74 1.57 1.30 1.18 1.13 1.05 1.05 1.13 1.10 1.01 0.95 1.00 1.00 0.97 0.96 0.91 0.88 0.81 0.70 0.67 0.64 0.60 0.57 0.53 0.55 0.65 0.75 0.83 0.85 0.93
0.15 0.26 0.34 0.46 0.56 0.70 0.88 0.97 0.83 0.86 0.88 0.95 1.06 1.10 1.10 1.21 1.19 1.34 1.53 1.70 1.60 1.28 1.05 1.05 1.05 1.00 0.97 0.98 0.97 0.95 0.91 0.82 0.81 0.81 0.80 0.78 0.72 0.66 0.60 0.56 0.56 0.60 0.57 0.53 0.56 0.56 0.56 0.59 0.64
0.27 0.38 0.52 0.69 0.63 0.69 0.89 1.06 0.95 0.94 0.96 1.05 1.23 1.30 1.29 1.20 1.10 1.09 1.13 1.20 1.21 1.06 0.87 0.83 0.95 0.99 0.93 0.91 0.93 0.92 0.81 0.75 0.72 0.67 0.64 0.57 0.53 0.49 0.47 0.49 0.48 0.48 0.50 0.50 0.54 0.56 0.55 0.52 0.53